Location: Lac Lasalle
(46.0398°N, 74.1576°W)
Time: 17:44:42
(UTC-05:00)

SEEDS - Pass Details

Date: 18 December 2019
Orbit: 586 x 603 km, 97.5° (Epoch: 21 January)

Event Time Altitude Azimuth Distance (km) Brightness Sun altitude
Rises 04:59:02 0° 24° (NNE) 2,859 ? -25.8°
Reaches altitude 10° 05:01:33 10° 39° (NE) 1,953 ? -25.3°
Maximum altitude 05:05:01 24° 94° (E) 1,261 ? -24.7°
Drops below altitude 10° 05:08:28 10° 148° (SSE) 1,944 ? -24.1°
Sets 05:10:58 0° 163° (SSE) 2,842 ? -23.7°
